Miscellaneous Local Product
Issued by NWS Hastings, NE

Home | Current Version | Previous Version | Graphics & Text | Print | Product List | Glossary On
Versions: 1 2 3 4 5 6 7 8 9 10 11 12 13 14 15 16 17 18 19 20 21 22 23 24 25 26 27 28 29 30 31 32 33 34 35 36 37 38 39 40 41 42 43 44 45 46 47 48 49 50
000
AXUS43 KGID 230602
MISGRI

GID CWA HOURLY WEATHER ROUNDUP
NATIONAL WEATHER SERVICE HASTINGS NE
100 AM CDT MON APR 23 2018

NOTE: "FAIR" INDICATES FEW OR NO CLOUDS BELOW 12,000 FEET WITH NO
SIGNIFICANT WEATHER AND/OR OBSTRUCTIONS TO VISIBILITY.

...SOUTH CENTRAL NEBRASKA...

CITY           SKY/WX    TMP DP  RH WIND       PRES   REMARKS
GRAND ISLAND   CLOUDY    52  43  71 CALM      30.18R
KEARNEY        CLOUDY    51  41  68 NW5       30.18S
HASTINGS       CLOUDY    52  44  74 CALM      30.17S
ORD            CLEAR     37  34  89 NW5       30.17S WCI  33
YORK             N/A     50  36  57 CALM      30.17S
AURORA         CLOUDY    52  40  65 N3        30.17S
LEXINGTON      CLEAR     40  37  87 CALM      30.19R
HOLDREGE       CLOUDY    51  40  64 CALM      30.17S
HEBRON         CLEAR     48  39  69 CALM      30.15S

...NEBRASKA PANHANDLE...

CITY           SKY/WX    TMP DP  RH WIND       PRES   REMARKS
CHADRON        CLEAR     49  39  68 S18       30.10S
ALLIANCE       CLEAR     40  37  89 S9        30.14S WCI  34
SCOTTSBLUFF    CLEAR     42  40  92 E12       30.14R
SIDNEY         CLEAR     35  33  92 S8        30.16S WCI  29

...WESTERN AND NORTH CENTRAL NEBRASKA...

CITY           SKY/WX    TMP DP  RH WIND       PRES   REMARKS
VALENTINE      CLEAR     45  38  76 SW10      30.17R
AINSWORTH      CLEAR     40  37  90 SW5       30.17S
ONEILL         PTCLDY    44  36  71 E3        30.18S
BROKEN BOW     CLEAR     36  33  89 CALM      30.18R
IMPERIAL       CLEAR     40  37  89 SE3       30.18S
NORTH PLATTE   CLEAR     40  36  86 CALM      30.18S
MCCOOK         CLEAR     42  35  76 CALM      30.18S

...EASTERN NEBRASKA...

CITY           SKY/WX    TMP DP  RH WIND       PRES   REMARKS
NORFOLK        CLOUDY    48  31  51 E5        30.17F
SO SIOUX CITY  MOCLDY    44  38  79 CALM      30.20R
TEKAMAH        CLEAR     40  32  73 N9        30.19R WCI  34
COLUMBUS       CLOUDY    48  34  58 E6        30.18S
ALBION         CLOUDY    52  40  62 CALM      30.18S
OMAHA EPPLEY   CLEAR     46  30  53 NW6       30.17S
MILLARD        CLEAR     51  31  46 CALM      30.17S
LINCOLN        CLEAR     43  32  65 N5        30.17S
NEBRASKA CITY  CLEAR     49  32  51 N5        30.16R
BEATRICE       CLEAR     49  35  58 NE6       30.15R
FALLS CITY     MOCLDY    50  38  63 CALM      30.13R

...NORTHERN KANSAS...

CITY           SKY/WX    TMP DP  RH WIND       PRES   REMARKS
GOODLAND       CLEAR     40  35  83 S6        30.18S
HILL CITY      CLEAR     39  36  89 W5        30.19R
NORTON         CLEAR     39  36  87 W6        30.18S WCI  35
PHILLIPSBURG   CLOUDY    48  39  71 W8        30.18R
SMITH CENTER   CLEAR     48  43  81 CALM      30.17S
BELOIT         CLOUDY    45  41  87 CALM      30.15S
HAYS           CLOUDY    51  43  74 NW5       30.17S
RUSSELL        CLOUDY    50  45  83 NW5       30.14S
CONCORDIA      CLEAR     49  40  71 NW6       30.13S
SALINA         CLEAR     49  41  74 NW3       30.13S
TOPEKA         CLOUDY    56  44  64 N5        30.10S



USA.gov is the U.S. government's official web portal to all federal, state and local government web resources and services.